Miscellaneous Local Product
Issued by NWS Hastings, NE

Home | Current Version | Previous Version | Graphics & Text | Print | Product List | Glossary On
Versions: 1 2 3 4 5 6 7 8 9 10 11 12 13 14 15 16 17 18 19 20 21 22 23 24 25 26 27 28 29 30 31 32 33 34 35 36 37 38 39 40 41 42 43 44 45 46 47 48 49 50
000
AXUS43 KGID 180702
MISGRI

GID CWA HOURLY WEATHER ROUNDUP
NATIONAL WEATHER SERVICE HASTINGS NE
200 AM CDT WED OCT 18 2017

NOTE: "FAIR" INDICATES FEW OR NO CLOUDS BELOW 12,000 FEET WITH NO
SIGNIFICANT WEATHER AND/OR OBSTRUCTIONS TO VISIBILITY.

...SOUTH CENTRAL NEBRASKA...

CITY           SKY/WX    TMP DP  RH WIND       PRES   REMARKS
GRAND ISLAND   CLEAR     57  45  64 S13       29.92F
HASTINGS       CLEAR     55  43  63 S8        29.94F
KEARNEY        CLEAR     53  41  63 SW12      29.93F
ORD            CLEAR     48  37  65 CALM      29.88F
YORK           CLEAR     52  46  82 S9        29.94F
AURORA         CLEAR     52  45  76 S7        29.93S
LEXINGTON      CLEAR     60  38  44 SW10      29.92F
HOLDREGE       CLEAR     53  41  64 SW7       29.94S
HEBRON         CLEAR     55  46  72 S7        29.96F

...NEBRASKA PANHANDLE...

CITY           SKY/WX    TMP DP  RH WIND       PRES   REMARKS
CHADRON        CLOUDY    51  21  30 SW9       29.83F
ALLIANCE       CLOUDY    36  26  67 CALM      29.91F
SCOTTSBLUFF    CLOUDY    44  26  49 N5        29.94F
SIDNEY         CLOUDY    37  26  64 SW10      29.99S WCI  30

...WESTERN AND NORTH CENTRAL NEBRASKA...

CITY           SKY/WX    TMP DP  RH WIND       PRES   REMARKS
VALENTINE      CLOUDY    47  30  51 W6        29.82F
AINSWORTH      CLEAR     55  33  43 SW13      29.83F
ONEILL         CLEAR     54  40  60 S6        29.86F
BROKEN BOW     CLEAR     52  36  54 W3        29.90F
IMPERIAL       CLEAR     46  29  51 W5        29.96F
NORTH PLATTE   CLEAR     47  36  65 NW3       29.93F
MCCOOK         CLEAR     51  37  58 SW7       29.95S

...EASTERN NEBRASKA...

CITY           SKY/WX    TMP DP  RH WIND       PRES   REMARKS
NORFOLK        CLEAR     50  44  80 CALM      29.89F
SO SIOUX CITY  CLEAR     46  44  93 SE9       29.91F
TEKAMAH        CLEAR     45  43  93 S5        29.93F
COLUMBUS       CLEAR     52  45  77 S7        29.93F
ALBION         CLEAR     51  44  76 SE5       29.91S
OMAHA EPPLEY   CLEAR     52  45  77 SE12      29.96F
OFFUTT AFB     CLEAR     45  43  92 E5        29.96F
MILLARD        CLEAR     52  47  84 CALM      29.96F
LINCOLN        CLEAR     51  46  83 S8        29.97F
NEBRASKA CITY  CLEAR     53  48  84 S9        29.99F
BEATRICE       CLEAR     55  46  71 S9        29.99S
FALLS CITY     CLEAR     54  46  74 S10       30.01F

...NORTHERN KANSAS...

CITY           SKY/WX    TMP DP  RH WIND       PRES   REMARKS
GOODLAND       CLEAR     54  35  48 SW12      29.99F
HILL CITY      CLEAR     55  43  63 SW10      29.97F
NORTON         SUNNY     54  37  54 SW9       29.94F
PHILLIPSBURG   CLEAR     46  39  76 CALM      29.96S
SMITH CENTER   MOCLDY    46  39  76 S5        29.97F
HAYS           CLEAR     51  41  68 S7        29.99F
RUSSELL        CLEAR     55  44  66 S14       29.97F
CONCORDIA      CLEAR     54  46  74 S14       29.98F
SALINA         CLEAR     56  47  71 S9        30.02S
TOPEKA         CLEAR     56  47  71 S6        30.06S



USA.gov is the U.S. government's official web portal to all federal, state and local government web resources and services.